Weather in Zhdanovka

Russia / Orenburg Oblast     52°24′05″N   54°24′06″E
temp.,
°C
wind,
m/s
gust,
m/s
humid.,
%
clouds,
%
prec.,
mm/h
press.,
hPa
HPBL,
m
18 may, tue
tue1823:00+22ese11321 0.0 101812
02:00+19sse22505 0.0 101816
05:00+18ssw11505 0.0 101711
08:00+22ene11420 0.0 101797
11:00+28e11305 0.0 1017559
14:00+30ne33194 0.0 10163282
17:00+30ne22195 0.0 10153504
20:00+26nne363611 0.0 1014109
19 may, wed
wed1923:00+20ene4106189 0.0 1015222
02:00+19ene3862100 0.1 1015170
05:00+17ne37721 0.1 1015149
08:00+18e710690 0.0 1016426
11:00+23ese89540 0.0 10171129
14:00+25ese89460 0.0 10171825
17:00+25e78420 0.0 10171945
20:00+22e610470 0.0 1018457
20 may, thu
thu2023:00+18e513543 0.0 1019305
02:00+16ese615545 0.0 1020401
05:00+14ese514543 0.0 1020352
08:00+16ese612510 0.0 1021479
11:00+20se89415 0.0 10211384
14:00+23se893413 0.0 10201937
17:00+23ese8932100 0.0 10192146
20:00+20ese610430 0.0 1019431
21 may, fri
fri2123:00+17ese51450100 0.0 1019323
02:00+16se6145094 0.0 1018330
05:00+14ese4125498 0.0 1019253
08:00+15se61255100 0.0 1019371
11:00+20sse79506 0.0 1019975
14:00+24ssw684652 0.3 10192186
17:00+22sse4856100 0.3 1020293
20:00+20sse386275 0.0 1020227
22 may, sat
sat2223:00+19s335959 0.0 102149
02:00+18sw3362100 0.0 102155
05:00+16w1171100 0.0 102311
08:00+19nnw116120 0.0 1024150
11:00+24nnw11425 0.0 10231161
14:00+27w113261 0.0 10231859
17:00+28wsw112957 0.0 10222127
20:00+26n1139100 0.0 102211